CW0506 Weather Reports


Display with metric or nautical units.
time (UTC)temp
F
wind
direction
speed
MPH
gust
MPH
rain 1hr
in
rain 24hr
in
rain mn
in
humidity
%
barometer
mb
20260831051047 64 93 2.0 6.0 0.00 0.00 0.00 99 1016.7
20260831050547 64 41 0.0 4.0 0.00 0.00 0.00 99 1016.4
20260831050040 64 20 0.0 2.0 0.00 0.00 0.00 99 1016.8
20260831045539 64 26 1.0 2.0 0.00 0.00 0.00 99 1017.1
20260831045035 64 336 1.0 3.0 0.00 0.00 0.00 99 1017.2
20260831044530 64 9 0.0 1.0 0.00 0.00 0.00 99 1017.4
20260831044026 65 37 2.0 2.0 0.00 0.00 0.00 99 1017.1
20260831043525 65 298 0.0 2.0 0.00 0.00 0.00 99 1017.0
20260831043021 65 24 2.0 3.0 0.00 0.00 0.00 99 1017.3
20260831042520 65 9 0.0 2.0 0.00 0.00 0.00 99 1017.3
20260831042015 65 49 0.0 1.0 0.00 0.00 0.00 99 1017.3
20260831041510 65 24 0.0 1.0 0.00 0.00 0.00 99 1017.1
20260831041004 65 342 0.0 1.0 0.00 0.00 0.00 99 1017.2
20260831040459 65 204 0.0 1.0 0.00 0.00 0.00 99 1017.0
20260831035956 66 217 0.0 0.0 0.00 0.24 0.24 99 1017.0
20260831035456 66 254 0.0 0.0 0.00 0.24 0.24 99 1017.0
20260831034951 66 176 0.0 1.0 0.00 0.24 0.24 99 1016.9
20260831034445 66 9 0.0 5.0 0.00 0.24 0.24 99 1016.9
20260831033941 66 264 0.0 1.0 0.00 0.24 0.24 99 1017.1
20260831033436 66 266 0.0 3.0 0.00 0.24 0.24 99 1016.8
20260831032932 66 330 0.0 3.0 0.00 0.24 0.24 99 1016.7
20260831032431 66 85 0.0 6.0 0.00 0.24 0.24 99 1016.9
20260831031926 66 85 0.0 3.0 0.00 0.24 0.24 99 1016.6
20260831031421 67 102 2.0 5.0 0.00 0.24 0.24 99 1016.6
20260831030915 67 80 2.0 2.0 0.00 0.24 0.24 99 1016.9
20260831030414 67 223 0.0 3.0 0.00 0.24 0.24 99 1017.0
20260831025912 67 9 0.0 2.0 0.00 0.24 0.24 99 1017.0
20260831025412 68 280 0.0 3.0 0.00 0.24 0.24 99 1017.1
20260831024908 68 305 0.0 1.0 0.00 0.24 0.24 99 1017.2
20260831024407 68 4 0.0 1.0 0.00 0.24 0.24 99 1017.0
20260831023902 68 106 0.0 0.0 0.00 0.24 0.24 99 1017.2
20260831023400 68 272 0.0 0.0 0.00 0.24 0.24 99 1017.1
20260831022855 68 272 0.0 1.0 0.00 0.24 0.24 99 1017.1
20260831022354 68 76 0.0 0.0 0.00 0.24 0.24 99 1017.1
20260831021848 68 76 0.0 1.0 0.00 0.24 0.24 99 1016.9
20260831021343 68 62 0.0 0.0 0.00 0.24 0.24 99 1016.8
20260831020839 68 62 0.0 1.0 0.00 0.24 0.24 99 1016.7
20260831020339 68 305 0.0 1.0 0.00 0.24 0.24 99 1016.8
20260831015834 68 44 0.0 1.0 0.00 0.24 0.24 99 1016.9
20260831015330 68 229 0.0 1.0 0.00 0.24 0.24 99 1016.7
20260831014829 68 107 0.0 0.0 0.02 0.24 0.24 99 1016.7
20260831014324 68 159 1.0 2.0 0.47 0.24 0.24 99 1016.7
20260831013821 69 305 2.0 5.0 1.30 0.23 0.23 99 1016.6
20260831013320 69 53 1.0 9.0 0.76 0.13 0.13 99 1016.7
20260831012815 71 165 2.0 5.0 0.02 0.01 0.01 99 1016.6
20260831012311 71 118 1.0 2.0 0.00 0.00 0.00 99 1016.0
20260831011810 71 113 0.0 2.0 0.00 0.00 0.00 99 1016.1
20260831011305 70 90 0.0 1.0 0.00 0.00 0.00 99 1016.0
20260831010800 70 81 0.0 1.0 0.00 0.00 0.00 99 1015.8
20260831010254 70 94 0.0 2.0 0.00 0.00 0.00 99 1015.8
20260831005751 70 107 0.0 2.0 0.00 0.00 0.00 99 1015.9
20260831005246 70 49 0.0 1.0 0.00 0.00 0.00 99 1015.8
20260831004741 70 73 0.0 0.0 0.00 0.00 0.00 99 1015.8
20260831004237 70 37 1.0 1.0 0.00 0.00 0.00 99 1015.8
20260831003732 70 150 0.0 2.0 0.00 0.00 0.00 99 1015.7
20260831003229 70 162 0.0 0.0 0.00 0.00 0.00 99 1015.8
20260831002728 70 189 0.0 1.0 0.00 0.00 0.00 99 1015.8
20260831002227 70 162 0.0 1.0 0.00 0.00 0.00 99 1015.8
20260831001723 70 107 0.0 0.0 0.00 0.00 0.00 99 1015.9
20260831001218 70 113 0.0 1.0 0.00 0.00 0.00 99 1015.8
20260831000715 70 115 0.0 1.0 0.00 0.00 0.00 99 1016.1
20260831000211 70 149 0.0 2.0 0.00 0.00 0.00 99 1015.7
20260830235709 70 203 0.0 1.0 0.00 0.00 0.00 98 1015.8
20260830235204 70 116 0.0 2.0 0.00 0.00 0.00 98 1015.8
20260830234659 71 148 1.0 2.0 0.02 0.00 0.00 97 1015.3
20260830234155 71 245 0.0 2.0 0.02 0.00 0.00 97 1015.5
20260830233650 71 189 0.0 2.0 0.00 0.00 0.00 96 1015.3
20260830233145 71 77 0.0 1.0 0.00 0.00 0.00 95 1015.8
20260830232641 71 242 0.0 0.0 0.00 0.00 0.00 95 1015.7
20260830232137 71 242 0.0 1.0 0.00 0.00 0.00 94 1015.7
20260830231633 72 314 0.0 2.0 0.00 0.00 0.00 94 1015.8
20260830231132 72 250 0.0 2.0 0.00 0.00 0.00 93 1015.9
20260830230627 72 290 1.0 4.0 0.00 0.00 0.00 92 1015.8
20260830230127 73 217 0.0 0.0 0.00 0.00 0.00 91 1015.8
20260830225622 73 217 0.0 2.0 0.00 0.00 0.00 90 1015.7
20260830225117 73 247 1.0 3.0 0.00 0.00 0.00 88 1015.8
20260830224616 74 351 2.0 3.0 0.00 0.00 0.00 88 1015.8
20260830224112 74 332 0.0 5.0 0.00 0.00 0.00 87 1015.8
20260830223609 74 319 0.0 2.0 0.00 0.00 0.00 86 1015.8
20260830223109 74 333 2.0 5.0 0.00 0.00 0.00 86 1016.0
20260830222603 74 278 0.0 2.0 0.00 0.00 0.00 86 1015.9
20260830222059 74 285 2.0 3.0 0.00 0.00 0.00 85 1015.7
20260830221555 75 277 1.0 4.0 0.00 0.00 0.00 85 1016.0
20260830221051 75 351 0.0 2.0 0.00 0.00 0.00 84 1015.7
20260830220545 75 326 0.0 3.0 0.00 0.00 0.00 84 1015.8
20260830220043 75 316 3.0 4.0 0.00 0.00 0.00 83 1015.8
20260830215538 75 298 2.0 6.0 0.00 0.00 0.00 83 1015.7
20260830215032 75 306 1.0 1.0 0.00 0.00 0.00 83 1015.6
20260830214528 75 71 2.0 3.0 0.00 0.00 0.00 82 1015.9
20260830214027 76 1 2.0 3.0 0.00 0.00 0.00 83 1015.7
20260830213522 76 349 1.0 3.0 0.00 0.00 0.00 81 1015.8
20260830213018 76 332 0.0 5.0 0.00 0.00 0.00 80 1015.8
20260830212513 75 287 2.0 4.0 0.00 0.00 0.00 80 1015.8
20260830212008 75 6 0.0 4.0 0.00 0.00 0.00 80 1015.6
20260830211503 76 301 2.0 4.0 0.00 0.00 0.00 80 1015.6
20260830210957 76 325 5.0 7.0 0.00 0.00 0.00 79 1015.8
20260830210457 76 293 0.0 5.0 0.00 0.00 0.00 79 1015.7
20260830205955 76 233 4.0 5.0 0.00 0.00 0.00 78 1015.7
20260830205454 76 325 5.0 7.0 0.00 0.00 0.00 78 1015.9
20260830204950 76 258 2.0 3.0 0.00 0.00 0.00 78 1015.8
20260830204449 76 238 0.0 4.0 0.00 0.00 0.00 78 1015.7
20260830203944 76 79 0.0 2.0 0.00 0.00 0.00 78 1015.9
20260830203440 76 248 2.0 4.0 0.00 0.00 0.00 77 1015.8
20260830202939 76 309 3.0 5.0 0.00 0.00 0.00 76 1016.1
20260830202434 75 70 1.0 5.0 0.00 0.00 0.00 77 1015.8
20260830201930 75 246 4.0 5.0 0.00 0.00 0.00 78 1016.1
20260830201424 75 294 2.0 3.0 0.00 0.00 0.00 77 1016.0
20260830200920 75 322 2.0 7.0 0.00 0.00 0.00 76 1016.2
20260830200419 75 5 1.0 2.0 0.00 0.00 0.00 77 1016.1
20260830195909 75 304 1.0 3.0 0.00 0.00 0.00 78 1016.0
20260830195408 76 13 4.0 6.0 0.00 0.00 0.00 76 1016.1
20260830194901 76 311 0.0 2.0 0.00 0.00 0.00 78 1016.2
20260830194400 76 8 2.0 4.0 0.00 0.00 0.00 76 1016.3
20260830193855 77 271 2.0 3.0 0.00 0.00 0.00 75 1016.3
20260830193354 77 271 1.0 4.0 0.00 0.00 0.00 74 1016.4
20260830192850 77 70 2.0 8.0 0.00 0.00 0.00 73 1016.3
20260830192350 76 300 1.0 6.0 0.00 0.00 0.00 73 1016.6
20260830191846 76 274 3.0 9.0 0.00 0.00 0.00 72 1016.6
20260830191345 77 310 2.0 9.0 0.00 0.00 0.00 72 1016.8
20260830190841 77 292 4.0 7.0 0.00 0.00 0.00 71 1017.1
20260830190336 77 9 3.0 8.0 0.00 0.00 0.00 71 1016.8
20260830185834 77 314 2.0 9.0 0.00 0.00 0.00 71 1017.0
20260830185330 78 31 5.0 5.0 0.00 0.00 0.00 70 1016.9
20260830184825 78 277 3.0 8.0 0.00 0.00 0.00 70 1017.3
20260830184324 77 312 3.0 7.0 0.00 0.00 0.00 72 1017.0
20260830183814 77 311 2.0 5.0 0.00 0.00 0.00 71 1017.4
20260830183313 77 329 6.0 9.0 0.00 0.00 0.00 69 1017.3
20260830182809 77 34 2.0 7.0 0.00 0.00 0.00 70 1017.3
20260830182306 78 326 2.0 8.0 0.00 0.00 0.00 69 1017.4
20260830181801 78 349 4.0 12.0 0.00 0.00 0.00 67 1017.3
20260830181255 78 322 4.0 7.0 0.00 0.00 0.00 66 1017.3
20260830180754 79 309 3.0 10.0 0.00 0.00 0.00 64 1017.4
20260830180249 78 310 2.0 6.0 0.00 0.00 0.00 68 1017.3
20260830175743 78 316 2.0 6.0 0.00 0.00 0.00 65 1017.4
20260830175238 78 226 2.0 5.0 0.00 0.00 0.00 65 1017.3
20260830174732 78 214 4.0 11.0 0.00 0.00 0.00 67 1017.4
20260830174229 78 314 5.0 8.0 0.00 0.00 0.00 64 1017.4
20260830173728 78 275 2.0 10.0 0.00 0.00 0.00 66 1017.3
20260830173223 77 290 3.0 5.0 0.00 0.00 0.00 67 1017.5
20260830172720 77 294 4.0 5.0 0.00 0.00 0.00 64 1017.5
20260830172217 78 254 5.0 9.0 0.00 0.00 0.00 63 1017.5
20260830171712 79 215 1.0 7.0 0.00 0.00 0.00 62 1017.5
20260830171207 79 287 0.0 7.0 0.00 0.00 0.00 61 1017.6
20260830170702 80 278 5.0 14.0 0.00 0.00 0.00 59 1017.8
20260830170201 80 266 2.0 6.0 0.00 0.00 0.00 61 1017.8
20260830165655 79 351 0.0 3.0 0.00 0.00 0.00 59 1017.9
20260830165151 79 303 3.0 5.0 0.00 0.00 0.00 59 1018.0
20260830164647 80 281 4.0 15.0 0.00 0.00 0.00 61 1018.0
20260830164143 78 14 3.0 10.0 0.00 0.00 0.00 59 1017.9
20260830163639 79 58 3.0 11.0 0.00 0.00 0.00 60 1017.8
20260830163139 80 262 4.0 7.0 0.00 0.00 0.00 55 1018.0
20260830162634 79 68 2.0 11.0 0.00 0.00 0.00 58 1018.0
20260830162130 80 272 6.0 7.0 0.00 0.00 0.00 55 1018.3
20260830161624 79 272 3.0 9.0 0.00 0.00 0.00 57 1018.5
20260830161119 79 347 4.0 8.0 0.00 0.00 0.00 55 1018.5
20260830160616 79 288 5.0 6.0 0.00 0.00 0.00 54 1018.5
20260830160110 81 244 6.0 9.0 0.00 0.00 0.00 54 1018.6
20260830155607 80 26 2.0 6.0 0.00 0.00 0.00 55 1018.5
20260830155102 79 319 6.0 7.0 0.00 0.00 0.00 53 1018.7
20260830154557 78 352 4.0 8.0 0.00 0.00 0.00 54 1018.5
20260830154054 80 299 5.0 9.0 0.00 0.00 0.00 51 1018.7
20260830153549 80 194 5.0 9.0 0.00 0.00 0.00 50 1018.8
20260830153049 80 344 10.0 10.0 0.00 0.00 0.00 52 1018.9
20260830152543 79 290 5.0 9.0 0.00 0.00 0.00 56 1018.8
20260830152043 79 279 5.0 10.0 0.00 0.00 0.00 57 1018.9
20260830151542 79 126 1.0 6.0 0.00 0.00 0.00 56 1019.1
20260830151037 80 302 4.0 8.0 0.00 0.00 0.00 57 1018.7
20260830150536 78 292 3.0 8.0 0.00 0.00 0.00 63 1019.0
20260830150031 78 277 3.0 7.0 0.00 0.00 0.00 61 1019.0
20260830145526 78 262 3.0 5.0 0.00 0.00 0.00 63 1018.9
20260830145021 78 94 2.0 5.0 0.00 0.00 0.00 63 1019.0
20260830144517 77 245 2.0 4.0 0.00 0.00 0.00 64 1019.0
20260830144013 76 282 0.0 3.0 0.00 0.00 0.00 64 1019.3
20260830143508 75 265 2.0 7.0 0.00 0.00 0.00 66 1019.1
20260830143006 75 72 1.0 3.0 0.00 0.00 0.00 66 1019.3
20260830142502 75 256 2.0 5.0 0.00 0.00 0.00 66 1019.2
20260830141956 75 184 1.0 5.0 0.00 0.00 0.00 66 1019.3
20260830141451 75 281 3.0 9.0 0.00 0.00 0.00 62 1019.3
20260830140947 76 307 2.0 8.0 0.00 0.00 0.00 65 1019.2
20260830140441 77 261 5.0 7.0 0.00 0.00 0.00 61 1019.4
20260830135941 77 34 2.0 4.0 0.00 0.00 0.00 62 1019.6
20260830135436 75 25 0.0 7.0 0.00 0.00 0.00 68 1019.4
20260830134932 75 289 3.0 6.0 0.00 0.00 0.00 66 1019.5
20260830134427 74 285 2.0 7.0 0.00 0.00 0.00 70 1019.5
20260830133922 75 283 2.0 4.0 0.00 0.00 0.00 68 1019.5
20260830133418 74 30 2.0 3.0 0.00 0.00 0.00 72 1019.7
20260830132913 72 356 1.0 3.0 0.00 0.00 0.00 76 1019.7
20260830132409 73 38 2.0 6.0 0.00 0.00 0.00 75 1019.7
20260830131908 71 33 0.0 4.0 0.00 0.00 0.00 80 1019.9
20260830131408 70 36 1.0 3.0 0.00 0.00 0.00 78 1019.9
20260830130903 70 37 0.0 1.0 0.00 0.00 0.00 80 1019.9
20260830130358 71 92 0.0 0.0 0.00 0.00 0.00 79 1019.9
20260830125857 71 235 0.0 2.0 0.00 0.00 0.00 77 1019.9
20260830125353 70 318 0.0 3.0 0.00 0.00 0.00 78 1019.8
20260830124850 69 39 2.0 4.0 0.00 0.00 0.00 79 1020.0
20260830124345 68 42 3.0 4.0 0.00 0.00 0.00 79 1019.9
20260830123842 71 26 3.0 4.0 0.00 0.00 0.00 75 1019.9
20260830123338 70 24 0.0 1.0 0.00 0.00 0.00 75 1020.0
20260830122836 67 356 0.0 3.0 0.00 0.00 0.00 82 1020.2
20260830122330 67 85 0.0 2.0 0.00 0.00 0.00 82 1020.3
20260830121826 67 189 0.0 1.0 0.00 0.00 0.00 85 1020.3
20260830121325 65 224 0.0 1.0 0.00 0.00 0.00 93 1020.6
20260830120821 62 154 0.0 1.0 0.00 0.00 0.00 96 1020.7
20260830120316 61 144 0.0 1.0 0.00 0.00 0.00 97 1020.5
20260830115812 60 155 0.0 1.0 0.00 0.00 0.00 97 1020.6
20260830115309 60 125 0.0 1.0 0.00 0.00 0.00 97 1020.5
20260830114804 59 144 0.0 3.0 0.00 0.00 0.00 97 1020.5
20260830114259 59 158 0.0 1.0 0.00 0.00 0.00 98 1020.6
20260830113754 59 125 0.0 0.0 0.00 0.00 0.00 98 1020.8
20260830113249 59 85 0.0 2.0 0.00 0.00 0.00 98 1020.7
20260830112740 59 55 0.0 2.0 0.00 0.00 0.00 98 1020.7
20260830112236 59 76 0.0 3.0 0.00 0.00 0.00 98 1020.7
20260830111731 59 357 0.0 1.0 0.00 0.00 0.00 99 1020.2
20260830111227 58 35 3.0 4.0 0.00 0.00 0.00 99 1020.3
20260830110726 58 40 1.0 2.0 0.00 0.00 0.00 99 1020.2
20260830110223 57 237 0.0 2.0 0.00 0.00 0.00 99 1020.2
20260830105722 57 105 0.0 2.0 0.00 0.00 0.00 99 1020.3
20260830105218 57 155 0.0 3.0 0.00 0.00 0.00 99 1020.5
20260830104715 57 210 1.0 2.0 0.00 0.00 0.00 99 1020.1
20260830104211 57 59 1.0 2.0 0.00 0.00 0.00 99 1020.2
20260830103710 57 280 0.0 1.0 0.00 0.00 0.00 99 1020.1
20260830103206 57 246 2.0 2.0 0.00 0.00 0.00 99 1020.3
20260830102704 57 226 1.0 2.0 0.00 0.00 0.00 99 1020.2
20260830102200 57 309 0.0 2.0 0.00 0.00 0.00 99 1020.1
20260830101656 57 265 0.0 2.0 0.00 0.00 0.00 99 1020.2
20260830101151 57 38 2.0 2.0 0.00 0.00 0.00 99 1020.2
20260830100650 57 293 0.0 2.0 0.00 0.00 0.00 99 1020.2
20260830100144 57 134 2.0 3.0 0.00 0.00 0.00 99 1020.2
20260830095638 57 189 1.0 3.0 0.00 0.00 0.00 99 1020.3
20260830095135 57 67 1.0 3.0 0.00 0.00 0.00 99 1020.2
20260830094631 57 22 2.0 3.0 0.00 0.00 0.00 99 1020.5
20260830094126 57 130 0.0 3.0 0.00 0.00 0.00 99 1020.5
20260830093621 57 44 2.0 3.0 0.00 0.00 0.00 99 1020.3
20260830093117 57 44 0.0 3.0 0.00 0.00 0.00 99 1020.6
20260830092612 57 37 0.0 2.0 0.00 0.00 0.00 99 1020.7
20260830092109 57 150 1.0 1.0 0.00 0.00 0.00 99 1020.3
20260830091604 57 95 1.0 2.0 0.00 0.00 0.00 99 1020.7
20260830091103 57 110 0.0 3.0 0.00 0.00 0.00 99 1020.7
20260830090557 57 51 2.0 4.0 0.00 0.00 0.00 99 1020.6
20260830090053 57 258 0.0 3.0 0.00 0.00 0.00 99 1020.7
20260830085547 57 256 0.0 4.0 0.00 0.00 0.00 99 1020.3
20260830085043 57 174 1.0 2.0 0.00 0.00 0.00 99 1020.6
20260830084538 57 281 0.0 4.0 0.00 0.00 0.00 99 1020.6
20260830084038 56 267 0.0 2.0 0.00 0.00 0.00 99 1020.6
20260830083533 56 181 1.0 2.0 0.00 0.00 0.00 99 1020.6
20260830083033 57 165 0.0 2.0 0.00 0.00 0.00 99 1020.5
20260830082529 57 148 0.0 3.0 0.00 0.00 0.00 99 1020.5
20260830082024 56 158 1.0 2.0 0.00 0.00 0.00 99 1020.7
20260830081520 56 260 2.0 3.0 0.00 0.00 0.00 99 1020.9
20260830081019 56 243 2.0 3.0 0.00 0.00 0.00 99 1020.7
20260830080515 56 280 2.0 2.0 0.00 0.00 0.00 99 1020.6
20260830080014 56 62 0.0 2.0 0.00 0.00 0.00 99 1020.5
20260830075509 56 285 0.0 0.0 0.00 0.00 0.00 99 1020.6
20260830075004 56 252 2.0 2.0 0.00 0.00 0.00 99 1020.6
20260830074500 56 184 0.0 2.0 0.00 0.00 0.00 99 1020.5
20260830073955 56 237 2.0 2.0 0.00 0.00 0.00 99 1020.7
20260830073451 56 329 0.0 1.0 0.00 0.00 0.00 99 1020.8
20260830072946 56 243 0.0 2.0 0.00 0.00 0.00 99 1020.8
20260830072442 56 210 2.0 3.0 0.00 0.00 0.00 99 1020.6
20260830071941 56 216 2.0 3.0 0.00 0.00 0.00 99 1020.6
20260830071437 56 234 1.0 2.0 0.00 0.00 0.00 99 1020.6
20260830070935 56 151 0.0 4.0 0.00 0.00 0.00 99 1020.9
20260830070430 56 168 0.0 2.0 0.00 0.00 0.00 99 1020.9
20260830065929 56 189 0.0 1.0 0.00 0.00 0.00 99 1021.0
20260830065424 56 177 1.0 2.0 0.00 0.00 0.00 99 1020.8
20260830064922 56 181 0.0 2.0 0.00 0.00 0.00 99 1020.7
20260830064418 56 211 1.0 2.0 0.00 0.00 0.00 99 1020.8
20260830063917 55 201 1.0 1.0 0.00 0.00 0.00 99 1020.8
20260830063412 55 222 1.0 2.0 0.00 0.00 0.00 99 1020.6
20260830062911 55 202 1.0 2.0 0.00 0.00 0.00 99 1020.8
20260830062410 55 231 1.0 2.0 0.00 0.00 0.00 99 1020.7
20260830061906 55 117 1.0 1.0 0.00 0.00 0.00 99 1020.6
20260830061400 55 135 1.0 2.0 0.00 0.00 0.00 99 1020.7
20260830060857 56 182 0.0 3.0 0.00 0.00 0.00 99 1020.5
20260830060353 56 166 0.0 2.0 0.00 0.00 0.00 99 1020.3
20260830055848 56 214 2.0 2.0 0.00 0.00 0.00 99 1020.6
20260830055344 55 233 0.0 1.0 0.00 0.00 0.00 99 1020.2
20260830054839 55 204 0.0 1.0 0.00 0.00 0.00 99 1020.2
20260830054334 56 269 0.0 3.0 0.00 0.00 0.00 99 1020.5
20260830053830 56 210 0.0 2.0 0.00 0.00 0.00 99 1020.3
20260830053325 56 230 0.0 2.0 0.00 0.00 0.00 99 1020.5
20260830052824 56 229 0.0 2.0 0.00 0.00 0.00 99 1020.6
20260830052320 56 215 0.0 2.0 0.00 0.00 0.00 99 1020.7
20260830051816 56 271 0.0 2.0 0.00 0.00 0.00 99 1020.6
20260830051311 56 260 1.0 2.0 0.00 0.00 0.00 99 1020.6